sat.trackr.live / text

‹ back to catalog

STARLINK-11537 [DTC]

NORAD 62911 · 2025-027E

PAYLOAD ACTIVE UNKNOWN

§ Identity

Operator
Country
US
Launch date
2025-02-08
Launch site
AFETR
Launch vehicle
Mass (kg)
RCS (m²)

Purposes: comms

External: N2YO · Heavens-Above · Gunter

§ Orbital elements

Epoch: 2026-09-21T09:51:46.476576Z

Period
91.67 min
Inclination
42.9982°
Eccentricity
0.0001081
Mean motion
15.70888126 rev/d
Perigee alt
355.6 km
Apogee alt
357.1 km
Semi-major
6,734.5 km
B*
9.1705e-4
RAAN
247.9520°
Arg perigee
235.2482°
Mean anomaly
124.8284°
Rev number
9,397

§ Raw data

STARLINK-11537 [DTC]1 62911U 25027E   26264.41095459  .00119162  00000+0  91705-3 0  99962 62911  42.9982 247.9520 0001081 235.2482 124.8284 15.70888126 93973

JSON: /api/v1/satellites/62911 · /tle

For live sub-satellite position, see the globe view (requires WebGL).

§ Visibility from observer

Set your observer location to see the next 7 days of passes ≥ 10°. The values pass through the URL so the page stays shareable.

No JS? Fill the form by hand. The geolocation button needs JavaScript.